Hourly Weather Roundup
Issued by NWS Central Illinois

Home | Current Version | Previous Version | Text Only | Print | Product List | Glossary On
Versions: 1 2 3 4 5 6 7 8 9 10 11 12 13 14 15 16 17 18 19 20 21 22 23 24 25 26 27 28 29 30 31 32 33 34 35 36 37 38 39 40 41 42 43 44 45 46 47 48 49 50
000
NZUS43 KILX 220910
HWRILX

Area Weather Roundup
National Weather Service Lincoln IL
400 AM CDT SAT JUL 22 2017

NOTE:  "FAIR" indicates few or no clouds below 12,000 feet, with
       no sigificant weather and/or obstructions to visibility.


CITY           SKY/WX    TMP DP  RH WIND       PRES   REMARKS
Bloomington    CLOUDY    72  68  87 N13       29.88R
Champaign      CLOUDY    79  75  87 S7        29.84F HX  83
Danville       LGT RAIN  71  71  98 CALM      29.84S
Decatur        LGT RAIN  81  74  79 SW9       29.83F HX  86
Effingham      CLEAR     81  76  85 S6        29.88S HX  87
Flora          CLEAR     79  76  90 S6        29.88S HX  82
Galesburg      TSTM      70  66  89 NE9G22    29.87S
Jacksonville   CLOUDY    81  71  71 SW9       29.82S HX  85
Lacon          LGT RAIN  72  69  89 N6        29.88R
Lawrenceville  CLEAR     77  75  93 S3        29.88F FOG
Litchfield     CLEAR     76  74  91 S6        29.85F
$$


CITY           SKY/WX    TMP DP  RH WIND       PRES   REMARKS
Lincoln        CLOUDY    84  74  72 SW3       29.83R HX  90
Macomb         PTCLDY    82  69  65 W7        29.82R HX  85
Mattoon        PTCLDY    81  77  88 S8        29.84F HX  88
Mt Carmel AP   CLEAR     78  74  90 S7        29.88F
Olney-Noble AP CLEAR     76  73  93 S5        29.88F
Paris AP       CLOUDY    79  76  91 SW6       29.85F HX  83
Peoria         CLOUDY    76  70  82 NE13      29.87R
Pontiac        CLOUDY    73  72  98 NW3       29.88S
Rantoul        CLOUDY    74  73  94 E3        29.85F
Robinson       CLEAR     78  75  91 SW7       29.87F HX  80
Springfield    CLOUDY    84  74  71 SW7       29.82S HX  91
Taylorville    CLOUDY    78  74  88 S7        29.84F HX  81
$$

...REGIONAL REPORTS...


CITY           SKY/WX    TMP DP  RH WIND       PRES   REMARKS
Chicago O`Hare LGT RAIN  72  70  93 SW8       29.83R
Kankakee       CLOUDY    72  72 100 NW12G22   29.88R
Moline         LGT RAIN  70  67  90 E20       29.87R
Mount Sterling CLOUDY    82  69  64 SW14      29.80F HX  86
Mount Vernon   CLEAR     78  75  90 S3        29.89S HX  81
Pittsfield     CLOUDY    83  71  67 SW8       29.84F HX  87
Quincy         CLOUDY    82  69  64 SW13      29.81F HX  85
Rockford       TSTM      72  67  84 SW12      29.83F
$$


CITY           SKY/WX    TMP DP  RH WIND       PRES   REMARKS
Burlington     TSTM      79  73  82 N8        29.81R HX  82
Cedar Rapids   CLOUDY    71  71 100 E9        29.85R
Des Moines     CLOUDY    83  73  72 S5        29.74S HX  89
Kirksville     PTCLDY    83  71  67 SW10G22   29.82S HX  87
Ottumwa        CLOUDY    86  70  58 SW9       29.74S HX  90
St Louis       CLEAR     87  72  60 SW10      29.87R HX  93
$$


CITY           SKY/WX    TMP DP  RH WIND       PRES   REMARKS
Terre Haute    CLOUDY    80  75  84 SW6       29.86F HX  85
Evansville     CLEAR     79  75  87 SW7       29.91S HX  83
Indianapolis   CLOUDY    75  69  81 N12       29.90S
Lafayette      MOCLDY    72  71  97 E8        29.85F
Madison        CLOUDY    67  65  93 CALM      29.80S
Milwaukee      CLOUDY    69  68  96 N5        29.78F
$$





USA.gov is the U.S. government's official web portal to all federal, state and local government web resources and services.